Wind_Speed
19 13 15 18 16 18 10 12 16 7 9 12 16 17 15 10 15 16 19 21 21 19 16 15 18 17 15 14 15 16 16 19 18 17 20 21 19 13 12 15 16 17 20 23
14 17 17 15 5 7 11 14 13 8 9 9 15 16 12 14 4 12 11 12 16 12 18 11 9 8 10 12 11 8 10 18 16 16 11 11 8 13 9 9 16 20 20 27
20 11 20 7 10 13 15 15 14 14 12 12 18 18 14 8 9 7 1 5 10 10 4 9 6 6 4 4 4 9 12 12 12 10 14 16 20 16 10 13 18 21 23 22
19 19 9 11 15 14 15 15 16 14 13 11 20 14 22 15 10 8 6 5 4 4 3 5 9 6 5 5 5 9 12 11 10 11 6 7 7 12 15 17 18 20 20 19
18 17 15 15 16 14 14 8 11 15 14 15 13 8 4 13 15 12 8 8 7 6 9 10 8 7 7 7 6 8 8 10 12 14 14 9 12 7 14 15 15 19 16 11
20 15 13 16 15 13 9 7 12 14 14 14 19 12 12 15 13 13 12 11 9 10 12 12 12 12 11 10 10 10 8 6 8 9 10 6 8 8 6 12 10 9 9 10
17 20 13 15 16 12 11 12 8 9 11 13 16 15 4 9 6 11 16 12 11 11 12 13 13 12 12 10 9 8 7 4 4 3 3 4 5 7 6 8 7 11 9 10
15 17 21 14 19 16 17 16 11 9 11 14 11 10 7 13 14 13 13 13 12 12 13 13 12 12 11 10 9 8 8 7 3 1 3 5 6 6 6 9 10 10 11 12
17 18 16 21 18 18 18 16 17 15 16 9 12 9 10 14 13 12 13 13 12 13 13 13 12 11 10 9 9 8 7 5 2 4 6 7 8 9 8 9 10 9 11 13
14 9 15 17 19 21 22 9 12 8 12 13 14 13 7 17 16 14 14 14 14 13 13 13 13 12 10 10 9 8 6 4 3 2 3 4 7 7 8 9 10 12 14 15
19 10 13 12 16 20 14 15 13 13 10 10 11 1 13 11 14 15 16 16 16 15 14 13 12 11 10 9 7 7 5 4 2 4 4 7 5 6 8 9 12 14 15 14
20 9 12 17 17 18 21 20 18 11 14 9 10 12 3 3 11 14 15 16 15 14 14 13 12 11 10 9 8 6 4 2 1 5 4 6 6 7 7 10 12 15 14 14
19 11 12 14 9 7 11 14 15 17 14 16 11 9 6 8 11 12 12 16 15 15 15 14 12 11 10 9 8 5 4 2 5 5 7 7 7 7 9 10 11 13 14 15
21 13 17 15 17 17 18 18 16 13 10 13 15 12 14 13 12 13 8 16 15 15 15 14 13 12 10 9 7 6 3 2 6 8 5 6 7 8 8 9 11 12 14 15
14 19 17 20 21 15 13 19 19 17 17 16 7 1 3 5 8 9 13 10 14 14 15 15 13 12 10 9 7 6 4 7 7 4 5 7 8 9 9 10 10 12 13 14
16 14 19 21 19 19 14 14 19 19 17 16 10 6 9 16 3 1 7 15 14 14 14 14 12 11 10 9 7 6 5 4 4 3 5 7 8 9 10 10 11 12 13 14
17 15 16 19 20 13 19 18 15 14 15 14 10 2 8 7 3 2 5 4 12 13 13 13 12 11 10 9 8 4 2 4 3 4 6 8 8 9 10 10 12 13 14 14
18 18 14 15 15 18 13 11 18 14 11 8 5 8 3 5 6 3 1 4 9 11 12 12 12 11 10 9 6 3 3 2 3 4 6 7 9 10 12 12 12 14 14 14
15 16 14 13 13 8 1 6 10 9 9 5 4 4 3 6 10 8 6 8 10 11 11 12 11 12 11 8 5 2 2 2 3 5 6 7 9 10 12 12 13 14 14 14
13 14 14 10 10 21 8 16 14 11 10 15 15 7 6 10 11 10 9 11 13 13 13 14 13 13 11 7 2 5 1 2 4 5 6 7 9 10 11 12 13 13 14 15
14 13 15 11 12 5 14 5 3 11 4 10 5 5 6 5 11 16 13 13 14 14 15 15 14 11 9 5 4 3 1 2 5 5 6 8 10 11 11 13 14 14 16 16
18 15 14 13 15 10 21 18 15 9 13 11 7 8 15 15 15 14 14 14 15 16 15 14 13 10 6 5 4 2 1 3 5 5 6 9 10 11 11 13 13 14 15 17
14 15 13 4 5 15 10 6 13 10 9 9 8 7 15 13 13 13 13 14 14 15 15 12 10 10 8 5 4 5 1 3 4 5 8 9 10 10 13 13 13 15 15 16
10 4 6 7 9 15 13 10 11 8 7 7 10 9 12 12 13 13 14 15 15 14 13 11 10 8 7 3 2 2 1 4 5 7 9 10 10 12 12 13 13 14 15 15
6 13 11 8 10 14 11 11 11 10 9 8 9 10 11 13 13 14 15 15 14 13 12 11 10 7 5 5 2 2 2 3 5 8 8 9 11 12 14 13 15 14 15 17
2 3 8 3 20 11 13 10 8 9 10 10 12 12 12 13 14 14 14 14 13 12 11 11 8 7 5 3 2 2 3 3 5 7 8 10 11 11 13 14 14 17 16 16
Wind_Direction
204 221 221 230 227 260 326 287 248 199 159 216 234 214 246 215 199 236 229 234 223 213 201 208 197 217 224 217 223 218 220 220 208 216 221 227 235 229 228 260 272 282 288 300
205 228 245 236 300 272 255 261 265 250 168 198 253 246 251 257 198 260 285 297 360 328 169 133 123 192 219 226 218 209 210 227 216 218 217 226 231 216 242 253 275 284 302 310
229 237 214 222 216 238 240 243 242 252 209 206 256 259 242 158 247 232 40 346 10 11 26 126 142 158 177 196 203 223 201 227 218 225 236 239 229 269 257 273 276 302 310 315
223 245 194 233 234 224 245 224 254 251 249 234 205 251 225 166 180 192 146 94 51 21 167 139 140 136 136 141 153 222 214 224 252 242 250 219 235 237 225 260 292 304 311 321
223 229 196 228 224 228 250 332 211 243 245 253 218 247 246 153 179 147 107 91 91 97 112 127 137 129 122 118 121 118 130 149 170 190 188 212 236 269 275 286 305 320 331 322
239 206 238 223 232 236 237 227 242 243 240 236 243 253 234 189 186 122 119 116 114 117 120 122 118 116 112 109 112 122 164 196 209 216 217 243 269 267 268 303 341 319 319 317
215 243 208 236 221 185 220 217 214 214 228 239 222 220 240 93 85 112 134 130 131 129 124 120 118 119 119 119 118 114 118 127 145 183 229 256 289 318 348 331 326 334 316 315
211 214 213 202 228 192 214 221 243 216 213 230 145 208 207 117 115 125 130 132 136 133 128 126 127 126 126 125 120 114 111 109 125 174 302 318 337 323 340 325 335 337 325 322
213 233 212 200 213 241 207 215 245 284 282 282 185 119 136 148 138 151 153 151 143 141 138 135 135 135 133 130 125 123 120 116 96 354 356 349 337 344 338 340 340 321 327 317
243 245 194 205 210 222 247 203 231 232 258 253 248 245 205 170 169 176 174 172 158 153 147 145 143 143 141 140 132 126 124 113 75 18 10 1 354 346 341 340 341 337 330 325
228 224 206 205 203 221 204 233 236 251 239 232 250 276 79 168 179 181 187 176 168 164 159 156 155 151 149 143 145 133 121 101 54 354 344 342 334 337 346 341 344 340 337 333
213 210 245 204 216 227 211 214 230 233 233 256 280 282 89 146 161 175 188 169 167 167 163 163 162 161 158 159 152 147 134 113 94 324 336 316 337 1 330 334 345 346 344 343
202 210 225 227 181 216 238 240 222 233 238 267 262 238 141 162 152 175 184 161 166 171 168 168 169 171 171 169 162 154 137 190 292 321 316 326 349 334 337 338 343 345 343 346
212 208 223 225 205 197 206 237 232 233 229 237 240 243 167 177 175 171 197 162 178 182 176 176 177 179 176 179 175 164 170 276 309 319 331 339 324 320 327 329 339 338 343 348
206 219 224 238 262 259 220 202 226 223 227 249 256 131 239 261 188 192 189 190 182 188 183 183 183 184 182 180 178 174 206 302 315 327 321 306 325 325 317 312 326 337 341 344
202 217 230 237 233 243 254 214 217 217 228 236 253 258 93 127 112 270 245 188 193 198 193 189 188 187 186 187 186 186 274 324 304 316 336 315 318 323 320 315 319 329 330 334
195 215 220 232 235 213 243 240 226 215 221 243 242 304 86 143 153 210 261 228 196 200 195 191 189 186 186 186 189 216 275 317 334 341 319 317 317 322 318 319 316 316 320 325
202 212 222 230 229 226 236 246 227 214 232 222 212 165 140 49 81 113 263 196 184 179 182 182 181 178 179 176 177 228 293 338 13 315 314 315 313 315 315 318 318 311 311 318
207 213 219 226 194 200 296 183 173 208 216 227 241 158 156 129 145 100 94 120 144 156 163 168 171 171 166 164 180 277 55 44 314 312 307 309 316 318 318 316 316 314 312 316
210 226 230 237 163 238 191 172 188 174 227 193 193 217 176 182 234 105 110 116 125 135 146 153 156 157 157 165 161 82 190 272 306 300 302 311 315 318 316 316 319 321 319 320
206 210 224 225 243 295 136 99 85 201 122 95 133 166 162 98 85 126 125 123 129 135 141 148 147 148 156 165 139 138 67 299 302 310 310 317 316 314 319 314 316 321 321 317
201 208 222 224 249 216 148 165 203 98 114 120 132 128 104 117 124 128 132 132 133 138 141 141 145 148 147 136 132 147 299 336 325 315 322 317 316 320 314 317 320 322 324 321
223 211 219 266 268 113 168 174 115 132 133 134 139 136 136 143 139 140 139 140 143 142 146 150 142 141 151 155 136 75 332 345 333 327 319 321 318 317 321 323 324 325 328 329
163 227 198 119 141 150 141 131 137 149 148 141 135 146 152 150 149 145 146 147 147 153 147 151 154 149 157 161 145 187 320 324 335 325 321 320 324 319 324 324 325 321 325 333
324 169 184 153 164 130 155 135 114 122 138 150 146 149 149 151 150 151 151 153 155 153 157 155 158 156 152 163 179 206 284 329 330 329 331 331 326 328 326 326 318 318 316 328
260 51 213 171 170 192 145 134 139 147 153 156 148 140 143 148 149 151 152 155 157 158 159 156 153 159 167 169 209 245 290 314 329 346 326 325 327 330 329 327 329 325 325 328
Height
1519 1517 1512 1502 1499 1493 1495 1491 1493 1487 1488 1498 1497 1495 1494 1494 1500 1503 1504 1505 1506 1508 1514 1521 1528 1537 1541 1545 1547 1548 1552 1550 1553 1553 1550 1551 1551 1553 1553 1552 1552 1548 1546 1544
1510 1513 1500 1498 1497 1501 1504 1504 1498 1487 1488 1502 1500 1498 1492 1493 1497 1502 1501 1502 1506 1504 1486 1516 1527 1536 1541 1540 1543 1543 1547 1546 1548 1548 1550 1551 1551 1550 1552 1550 1547 1544 1542 1540
1503 1496 1498 1499 1505 1510 1505 1504 1500 1498 1490 1498 1501 1497 1494 1493 1502 1505 1511 1514 1514 1515 1513 1520 1530 1536 1538 1540 1542 1541 1542 1540 1545 1546 1547 1548 1548 1549 1549 1546 1544 1541 1539 1535
1495 1494 1500 1501 1507 1504 1508 1495 1497 1497 1500 1507 1490 1511 1483 1488 1501 1508 1513 1516 1521 1522 1523 1525 1531 1534 1536 1537 1537 1538 1540 1542 1543 1545 1546 1548 1550 1547 1545 1544 1541 1538 1535 1532
1492 1493 1496 1503 1501 1497 1500 1490 1495 1497 1499 1498 1494 1504 1484 1486 1498 1504 1515 1521 1525 1526 1526 1530 1533 1533 1534 1536 1537 1537 1539 1540 1541 1540 1542 1545 1545 1545 1543 1542 1538 1535 1532 1530
1486 1485 1490 1494 1494 1495 1494 1502 1500 1497 1498 1513 1495 1493 1484 1482 1486 1499 1517 1522 1526 1528 1530 1531 1531 1533 1534 1536 1537 1537 1536 1537 1539 1540 1542 1543 1543 1542 1541 1538 1537 1537 1536 1533
1490 1486 1489 1492 1493 1494 1497 1503 1513 1518 1511 1509 1477 1490 1486 1489 1491 1496 1511 1520 1525 1527 1529 1530 1532 1534 1535 1537 1538 1537 1537 1537 1539 1540 1540 1540 1539 1538 1539 1536 1536 1533 1532 1530
1491 1497 1481 1485 1482 1491 1495 1493 1499 1517 1503 1488 1478 1500 1485 1488 1498 1506 1512 1519 1523 1525 1527 1530 1532 1534 1536 1537 1538 1538 1538 1539 1539 1539 1539 1538 1538 1537 1536 1533 1531 1531 1529 1527
1477 1482 1465 1475 1483 1482 1483 1495 1480 1491 1482 1490 1482 1482 1485 1490 1497 1506 1511 1516 1521 1524 1526 1529 1531 1533 1535 1537 1537 1539 1539 1539 1538 1538 1537 1536 1536 1534 1534 1531 1528 1527 1524 1521
1467 1480 1465 1469 1477 1480 1479 1475 1497 1494 1516 1513 1487 1482 1481 1486 1491 1499 1506 1512 1519 1522 1525 1528 1531 1533 1535 1536 1536 1538 1539 1538 1538 1537 1537 1536 1535 1534 1532 1531 1527 1524 1520 1517
1467 1476 1468 1469 1476 1476 1479 1483 1479 1481 1484 1502 1505 1491 1472 1480 1485 1492 1499 1507 1515 1520 1524 1528 1531 1533 1535 1536 1537 1537 1538 1538 1538 1536 1536 1534 1533 1532 1530 1528 1525 1522 1518 1516
1464 1473 1477 1472 1465 1468 1467 1475 1477 1492 1500 1488 1492 1491 1475 1476 1482 1490 1495 1504 1513 1519 1523 1527 1531 1533 1535 1536 1537 1536 1537 1538 1537 1535 1534 1533 1532 1530 1528 1525 1522 1520 1517 1514
1462 1471 1487 1473 1468 1468 1470 1467 1467 1473 1480 1491 1498 1494 1474 1477 1482 1490 1494 1502 1513 1518 1522 1527 1530 1533 1534 1536 1536 1536 1536 1536 1534 1533 1532 1530 1529 1529 1527 1525 1522 1520 1517 1513
1460 1465 1476 1477 1464 1460 1476 1472 1469 1475 1488 1488 1483 1476 1477 1480 1483 1488 1495 1501 1511 1517 1522 1525 1529 1532 1533 1535 1536 1535 1534 1533 1533 1532 1531 1531 1530 1529 1527 1525 1522 1520 1516 1512
1459 1469 1465 1463 1455 1450 1453 1463 1467 1471 1474 1482 1470 1483 1483 1483 1485 1488 1495 1502 1510 1517 1521 1524 1528 1530 1532 1534 1535 1534 1532 1531 1531 1532 1531 1531 1529 1528 1526 1524 1520 1518 1516 1513
1457 1467 1464 1463 1455 1453 1456 1453 1457 1462 1464 1467 1468 1474 1471 1484 1488 1490 1493 1497 1507 1515 1519 1523 1526 1529 1531 1533 1534 1533 1530 1530 1530 1531 1530 1531 1529 1527 1525 1523 1520 1518 1515 1513
1456 1460 1462 1467 1452 1453 1465 1453 1452 1455 1457 1461 1475 1472 1476 1482 1487 1491 1496 1497 1504 1512 1518 1522 1526 1529 1531 1531 1532 1530 1529 1529 1529 1530 1531 1530 1529 1527 1525 1522 1520 1517 1514 1512
1451 1458 1452 1460 1453 1477 1445 1438 1442 1452 1455 1459 1464 1476 1479 1485 1492 1496 1498 1497 1504 1511 1517 1521 1525 1528 1529 1530 1529 1528 1528 1528 1530 1531 1531 1530 1528 1526 1524 1521 1518 1516 1513 1510
1444 1449 1453 1456 1459 1464 1454 1447 1451 1457 1462 1462 1467 1474 1483 1489 1496 1500 1502 1502 1506 1511 1516 1521 1524 1526 1527 1528 1527 1527 1527 1529 1530 1530 1529 1528 1526 1524 1522 1520 1517 1514 1511 1508
1442 1442 1446 1451 1479 1474 1443 1442 1448 1453 1469 1461 1468 1475 1479 1487 1485 1499 1505 1506 1509 1512 1516 1520 1523 1525 1526 1525 1526 1526 1530 1529 1529 1528 1527 1526 1525 1522 1520 1518 1515 1512 1509 1506
1445 1444 1446 1444 1458 1442 1444 1460 1457 1473 1470 1467 1472 1476 1480 1485 1495 1503 1506 1509 1510 1513 1516 1519 1521 1524 1525 1524 1525 1527 1528 1529 1528 1526 1526 1525 1523 1521 1519 1516 1513 1510 1508 1505
1437 1443 1445 1446 1457 1465 1449 1454 1462 1462 1465 1471 1476 1479 1486 1494 1499 1502 1506 1509 1511 1513 1516 1520 1522 1522 1523 1525 1527 1528 1527 1527 1527 1526 1525 1524 1522 1519 1517 1514 1512 1509 1506 1503
1433 1427 1434 1438 1440 1442 1450 1450 1459 1463 1467 1472 1478 1483 1488 1494 1498 1503 1506 1509 1512 1514 1518 1520 1521 1523 1524 1524 1526 1527 1528 1527 1526 1525 1524 1522 1520 1518 1516 1513 1510 1508 1505 1502
1423 1432 1432 1441 1448 1451 1457 1457 1461 1464 1468 1475 1480 1485 1489 1494 1498 1503 1507 1510 1513 1516 1518 1521 1522 1524 1524 1524 1527 1528 1527 1526 1526 1524 1523 1521 1519 1517 1515 1512 1510 1507 1504 1501
1431 1430 1429 1439 1448 1449 1458 1457 1461 1467 1473 1479 1483 1486 1490 1494 1498 1502 1506 1510 1514 1517 1519 1521 1523 1524 1526 1527 1527 1527 1526 1525 1525 1523 1521 1519 1518 1516 1513 1511 1508 1506 1502 1499
1439 1433 1434 1436 1440 1448 1451 1460 1467 1472 1477 1481 1484 1487 1491 1494 1498 1502 1507 1511 1514 1517 1519 1521 1523 1525 1526 1527 1527 1527 1525 1524 1523 1522 1521 1519 1516 1514 1512 1509 1506 1501 1498 1495